Retour au catalogue

FENGYUN 1C DEB

ActifPO
NORAD 31093·DEBRIS·🇨🇳 China

Lancé May 10, 1999 depuis Taiyuan Satellite Launch Center

Loading…

Prochains Passages (prochaines 24 heures)

TLE

FraisSource: Space-Track

Époque: Sep 13, 2026, 11:04 UTC

1 31093U 99025BGP 26256.46178639  .00000329  00000-0  29620-3 0  9992
2 31093  98.5960  75.9341 0208044 198.4930 160.8583 13.80862634982984

Suivez FENGYUN 1C DEB en temps réel avec AllMySat

Download on the App Store